Weather observations for the past three days for
Lawrenceville-Vincennes International Airport
Imperial (Metric)
Date Time (cdt) Wind (mph) Vis. (mi.) Weather Sky Cond. Temperature (ºF) Relative Humidity Wind Chill (°F) Heat Index (°F) Pressure Precipitation (in)
Air Dwpt 6 hour altimeter (in) sea level (mb) 1 hr 3 hr 6 hr
Max. Min.
21 04:53 N 5 10.00 Overcast BKN060 OVC075 68 63 84% 30.08 1018.1
21 03:53 N 3 10.00 Overcast OVC060 69.1 63 81% 30.08 1018.1
21 02:53 NE 6 10.00 A Few Clouds FEW060 68 63 84% 30.08 1018.1
21 01:53 N 5 10.00 Mostly Cloudy SCT060 BKN095 69.1 63 81% 30.08 1018.3
21 00:53 NE 7 10.00 A Few Clouds FEW090 68 63 79 68 84% 30.08 1018.1
20 23:53 NE 6 10.00 A Few Clouds FEW070 70 63 79% 30.08 1018.2
20 22:53 N 6 10.00 Mostly Cloudy BKN080 70 66 87% 30.09 1018.4
20 21:53 NE 5 10.00 Fair CLR 71.1 66 84% 30.09 1018.6
20 20:53 NE 6 10.00 Fair CLR 72 66.9 84% 30.07 1017.9
20 19:53 N 6 9.00 Fair CLR 75 66 74% 76 30.06 1017.7
20 18:53 NE 6 10.00 Fair CLR 79 64 84.9 79 60% 81 30.06 1017.7
20 17:53 N 7 10.00 Partly Cloudy SCT050 SCT065 81 64 57% 83 30.06 1017.7
20 16:53 E 7 10.00 Fair CLR 82.9 62.1 49% 84 30.07 1017.8
20 15:53 Calm 10.00 Fair CLR 82.9 61 48% 83 30.07 1018.0
20 14:53 N 7 10.00 Mostly Cloudy BKN070 82.9 62.1 49% 84 30.08 1018.4
20 13:53 Calm 10.00 Mostly Cloudy BKN060 82.9 59 44% 83 30.1 1018.9
20 12:53 E 6 10.00 A Few Clouds FEW045 81 61 82.9 64.9 51% 82 30.11 1019.2
20 11:53 N 5 10.00 Fair CLR 82 62.1 51% 83 30.12 1019.5
20 10:53 N 5 10.00 Mostly Cloudy BKN065 81 63 54% 82 30.12 1019.6
20 09:53 NE 5 10.00 Fair CLR 77 62.1 60% 79 30.12 1019.6
20 08:53 NE 6 10.00 Fair CLR 73 63 71% 30.11 1019.3
20 07:53 NE 6 10.00 Fair CLR 68 61 78% 30.12 1019.5
20 06:53 NE 3 10.00 Fair CLR 64.9 61 66 62.1 87% 30.11 1019.3
20 05:53 NE 6 10.00 Fair CLR 62.1 60.1 93% 30.09 1018.7
20 04:53 NE 5 10.00 Fair CLR 62.1 60.1 93% 30.08 1018.3
20 03:53 NE 6 10.00 Fair CLR 62.1 60.1 93% 30.09 1018.5
20 02:53 Calm 10.00 A Few Clouds FEW065 64 61 90% 30.1 1018.9
20 01:53 N 3 10.00 Mostly Cloudy BKN060 64.9 61 87% 30.1 1018.9
20 00:53 NE 5 10.00 Mostly Cloudy BKN060 66 61 79 64.9 84% 30.1 1018.9
19 23:53 NE 5 10.00 Fair CLR 66 61 84% 30.1 1018.9
19 22:53 E 3 10.00 Fair CLR 66 62.1 87% 30.09 1018.7
19 21:53 NE 5 10.00 Fair CLR 68 63 84% 30.09 1018.8
19 20:53 N 6 10.00 Fair CLR 70 63 79% 30.09 1018.6
19 19:53 N 6 10.00 Fair CLR 73.9 63 69% 30.09 1018.6
19 18:53 NE 3 10.00 Fair CLR 79 60.1 82 78.1 52% 80 30.09 1018.5
19 17:53 N 6 10.00 A Few Clouds FEW055 81 59 47% 81 30.09 1018.6
19 16:53 E 8 10.00 Partly Cloudy SCT050 81 59 47% 81 30.09 1018.8
19 15:53 E 8 10.00 Partly Cloudy SCT055 79 57.9 49% 80 30.1 1019.0
19 14:53 Calm 10.00 Partly Cloudy SCT050 79 57 47% 80 30.12 1019.5
19 13:53 Vrbl 5 10.00 Mostly Cloudy BKN049 80.1 59 49% 81 30.14 1020.2
19 12:53 E 6 10.00 Partly Cloudy SCT049 80.1 57.9 80.1 62.1 47% 81 30.15 1020.6
19 11:53 Vrbl 7 10.00 A Few Clouds FEW047 78.1 57 48% 79 30.16 1021.1
19 10:53 Vrbl 3 10.00 Fair CLR 75.9 59 56% 78 30.17 1021.3
19 09:53 Calm 10.00 Fair CLR 73 61 66% 30.18 1021.7
19 08:53 E 6 10.00 Fair CLR 70 61 73% 30.18 1021.8
19 07:53 NE 7 10.00 Fair CLR 66 60.1 81% 30.18 1021.8
19 06:53 NE 5 10.00 Fair CLR 62.1 59 63 59 90% 30.18 1021.6
19 05:53 NE 5 10.00 Fair CLR 59 57 93% 30.17 1021.4
19 04:53 N 5 10.00 Fair CLR 59 57 93% 30.16 1021.1
19 03:53 N 5 10.00 Fair CLR 60.1 57.9 93% 30.16 1020.8
19 02:53 NE 6 10.00 Fair CLR 61 57.9 90% 30.15 1020.7
19 01:53 N 6 10.00 Fair CLR 61 57.9 90% 30.16 1020.8
19 00:53 NE 5 10.00 Fair CLR 62.1 57.9 75.9 62.1 86% 30.16 1020.9
18 23:53 N 6 10.00 Fair CLR 63 59 87% 30.16 1021.0
18 22:53 NE 5 10.00 Fair CLR 64 60.1 87% 30.15 1020.7
18 21:53 N 6 10.00 Fair CLR 64.9 60.1 84% 30.15 1020.6
18 20:53 N 6 10.00 Fair CLR 66.9 60.1 79% 30.13 1020.1
18 19:53 N 5 10.00 Fair CLR 71.1 60.1 68% 30.13 1019.9
18 18:53 N 9 10.00 Partly Cloudy FEW046 SCT060 75.9 57 80.1 75 52% 78 30.12 1019.5
18 17:53 N 10 10.00 A Few Clouds FEW065 77 57 50% 79 30.12 1019.6
18 16:53 N 9 10.00 Partly Cloudy SCT065 75.9 57.9 54% 78 30.13 1019.9
18 15:53 N 9 10.00 Partly Cloudy SCT060 79 59 50% 80 30.14 1020.3
18 14:53 NE 9 10.00 A Few Clouds FEW060 79 57 47% 80 30.14 1020.3
18 13:53 N 12 10.00 Partly Cloudy SCT049 78.1 57 48% 79 30.15 1020.5
18 12:53 N 15 G 21 10.00 Partly Cloudy SCT045 75.9 55.9 77 64.9 50% 78 30.15 1020.8
18 11:53 N 15 G 20 10.00 Fair CLR 75.9 57 52% 78 30.16 1021.0
18 10:53 NE 12 10.00 Fair CLR 75.9 57 52% 78 30.15 1020.8
18 09:53 NE 15 G 22 10.00 Fair CLR 73 55 53% 30.14 1020.5
18 08:53 N 10 10.00 Fair CLR 71.1 57.9 63% 30.14 1020.2
18 07:53 NE 10 10.00 Fair CLR 68 57.9 70% 30.13 1020.0
18 06:53 N 8 10.00 Fair CLR 64.9 59 70 63 81% 30.12 1019.7
18 05:53 N 5 10.00 A Few Clouds FEW055 63 59 87% 30.1 1019.0
Date Time (cdt) Wind (mph) Vis. (mi.) Weather Sky Cond. Air Dwpt Max. Min. Relative Humidity Wind Chill (°F) Heat Index (°F) altimeter (in) sea level (mb) 1 hr 3 hr 6 hr
6 hour
Temperature (ºF) Pressure Precipitation (in)